Hourly Weather Russkiy Leblyak

Today, 22 April, Thursday

Time Temperature Precipitation Wind Pressure Humidity
00:00 -1°C° 0.2 mm 7 mps 748 mmHg 95%
01:00 -1°C° 0.1 mm 7 mps 748 mmHg 95%
02:00 -1°C° 0.1 mm 7 mps 748 mmHg 94%
03:00 -1°C° 0.1 mm 7 mps 748 mmHg 94%
04:00 +1°C° 0 mm 6 mps 748 mmHg 94%
05:00 +1°C° 0 mm 6 mps 748 mmHg 95%
06:00 +1°C° 0 mm 5 mps 749 mmHg 95%
07:00 +2°C° 0 mm 5 mps 749 mmHg 93%
08:00 +2°C° 0 mm 5 mps 749 mmHg 92%
09:00 +3°C° 0 mm 5 mps 750 mmHg 91%
10:00 +5°C° 0 mm 5 mps 750 mmHg 87%
11:00 +6°C° 0 mm 5 mps 750 mmHg 82%
12:00 +7°C° 0 mm 5 mps 750 mmHg 78%
13:00 +7°C° 0 mm 5 mps 750 mmHg 77%
14:00 +8°C° 0 mm 5 mps 750 mmHg 75%
15:00 +9°C° 0 mm 6 mps 750 mmHg 74%
16:00 +8°C° 0.1 mm 6 mps 750 mmHg 77%
17:00 +8°C° 0.1 mm 6 mps 750 mmHg 80%
18:00 +7°C° 0.1 mm 6 mps 750 mmHg 83%
19:00 +6°C° 0.1 mm 5 mps 750 mmHg 86%
20:00 +5°C° 0.1 mm 5 mps 750 mmHg 89%
21:00 +5°C° 0.1 mm 4 mps 750 mmHg 91%
22:00 +4°C° 0 mm 4 mps 750 mmHg 92%
23:00 +3°C° 0 mm 3 mps 750 mmHg 93%

Tomorrow, 23 April, Friday

Time Temperature Precipitation Wind Pressure Humidity
00:00 +3°C° 0 mm 3 mps 750 mmHg 94%
01:00 +2°C° 0 mm 3 mps 751 mmHg 95%
02:00 +3°C° 0 mm 2 mps 751 mmHg 95%
03:00 +2°C° 0 mm 2 mps 751 mmHg 95%
04:00 +3°C° 0 mm 2 mps 751 mmHg 94%
05:00 +4°C° 0 mm 2 mps 751 mmHg 93%
06:00 +4°C° 0 mm 2 mps 751 mmHg 92%
07:00 +6°C° 0 mm 2 mps 752 mmHg 85%
08:00 +7°C° 0 mm 2 mps 752 mmHg 78%
09:00 +9°C° 0 mm 3 mps 752 mmHg 72%
10:00 +10°C° 0 mm 3 mps 752 mmHg 65%
11:00 +11°C° 0 mm 3 mps 752 mmHg 58%
12:00 +13°C° 0 mm 3 mps 752 mmHg 52%
13:00 +14°C° 0 mm 2 mps 751 mmHg 50%
14:00 +14°C° 0 mm 2 mps 751 mmHg 47%
15:00 +15°C° 0 mm 2 mps 751 mmHg 45%
16:00 +13°C° 0 mm 3 mps 751 mmHg 52%
17:00 +12°C° 0 mm 3 mps 751 mmHg 59%
18:00 +11°C° 0 mm 4 mps 751 mmHg 66%
19:00 +10°C° 0 mm 3 mps 750 mmHg 73%
20:00 +8°C° 0 mm 3 mps 750 mmHg 80%
21:00 +7°C° 0 mm 2 mps 750 mmHg 87%
22:00 +6°C° 0 mm 2 mps 750 mmHg 88%
23:00 +6°C° 0 mm 2 mps 749 mmHg 90%

Day after tomorrow, 24 April, Saturday

Time Temperature Precipitation Wind Pressure Humidity
00:00 +5°C° 0 mm 2 mps 749 mmHg 91%
01:00 +5°C° 0 mm 2 mps 749 mmHg 92%
02:00 +4°C° 0 mm 3 mps 748 mmHg 92%
03:00 +3°C° 0 mm 3 mps 748 mmHg 93%
04:00 +4°C° 0 mm 3 mps 748 mmHg 92%
05:00 +4°C° 0 mm 3 mps 747 mmHg 91%
06:00 +4°C° 0 mm 4 mps 747 mmHg 89%
07:00 +5°C° 0 mm 4 mps 747 mmHg 87%
08:00 +6°C° 0 mm 4 mps 746 mmHg 84%
09:00 +7°C° 0 mm 4 mps 746 mmHg 82%
10:00 +7°C° 0 mm 4 mps 745 mmHg 81%
11:00 +7°C° 0 mm 4 mps 745 mmHg 80%
12:00 +7°C° 0 mm 4 mps 745 mmHg 79%
13:00 +7°C° 0.2 mm 4 mps 744 mmHg 84%
14:00 +7°C° 0.2 mm 3 mps 744 mmHg 88%
15:00 +5°C° 0.2 mm 3 mps 744 mmHg 92%
16:00 +5°C° 0.3 mm 3 mps 743 mmHg 93%
17:00 +5°C° 0.3 mm 3 mps 743 mmHg 95%
18:00 +5°C° 0.3 mm 3 mps 742 mmHg 96%
19:00 +5°C° 0 mm 3 mps 742 mmHg 96%
20:00 +5°C° 0 mm 3 mps 742 mmHg 95%
21:00 +5°C° 0 mm 3 mps 741 mmHg 95%
22:00 +4°C° 0 mm 4 mps 741 mmHg 95%
23:00 +4°C° 0 mm 4 mps 740 mmHg 95%

25 April, Sunday

Time Temperature Precipitation Wind Pressure Humidity
00:00 +4°C° 0 mm 4 mps 739 mmHg 95%
01:00 +4°C° 0 mm 4 mps 739 mmHg 95%
02:00 +3°C° 0 mm 5 mps 738 mmHg 95%
03:00 +3°C° 0 mm 5 mps 737 mmHg 95%
04:00 +3°C° 0.3 mm 5 mps 736 mmHg 95%
05:00 +3°C° 0.3 mm 5 mps 736 mmHg 96%
06:00 +3°C° 0.3 mm 6 mps 735 mmHg 96%
07:00 +3°C° 0.7 mm 6 mps 735 mmHg 95%
08:00 +2°C° 0.7 mm 6 mps 735 mmHg 95%
09:00 +2°C° 0.7 mm 6 mps 735 mmHg 95%
10:00 +2°C° 0.5 mm 7 mps 736 mmHg 90%
11:00 +2°C° 0.5 mm 7 mps 736 mmHg 86%
12:00 +3°C° 0.5 mm 7 mps 737 mmHg 82%
13:00 +4°C° 0.2 mm 7 mps 738 mmHg 73%
14:00 +5°C° 0.2 mm 8 mps 738 mmHg 64%
15:00 +7°C° 0.2 mm 8 mps 739 mmHg 56%
16:00 +6°C° 0.1 mm 7 mps 739 mmHg 56%
17:00 +6°C° 0.1 mm 7 mps 739 mmHg 57%
18:00 +5°C° 0.1 mm 6 mps 740 mmHg 58%
19:00 +5°C° 0 mm 5 mps 740 mmHg 63%
20:00 +3°C° 0 mm 5 mps 741 mmHg 69%
21:00 +3°C° 0 mm 4 mps 741 mmHg 74%
22:00 +1°C° 0 mm 4 mps 741 mmHg 77%
23:00 +1°C° 0 mm 4 mps 741 mmHg 80%

26 April, Monday

Time Temperature Precipitation Wind Pressure Humidity
00:00 0°C° 0 mm 4 mps 742 mmHg 82%
01:00 0°C° 0 mm 4 mps 742 mmHg 84%
02:00 -1°C° 0 mm 4 mps 742 mmHg 85%
03:00 -1°C° 0 mm 4 mps 742 mmHg 86%
04:00 -1°C° 0 mm 4 mps 742 mmHg 85%
05:00 0°C° 0 mm 5 mps 742 mmHg 83%
06:00 0°C° 0 mm 5 mps 743 mmHg 81%
07:00 +2°C° 0 mm 5 mps 743 mmHg 74%
08:00 +3°C° 0 mm 6 mps 743 mmHg 67%
09:00 +4°C° 0 mm 6 mps 743 mmHg 59%
10:00 +5°C° 0 mm 6 mps 743 mmHg 53%
11:00 +6°C° 0 mm 7 mps 743 mmHg 47%
12:00 +8°C° 0 mm 7 mps 743 mmHg 40%
13:00 +8°C° 0 mm 7 mps 743 mmHg 40%
14:00 +9°C° 0 mm 7 mps 743 mmHg 39%
15:00 +9°C° 0 mm 7 mps 743 mmHg 39%
16:00 +8°C° 0 mm 6 mps 743 mmHg 46%
17:00 +7°C° 0 mm 5 mps 743 mmHg 53%
18:00 +6°C° 0 mm 4 mps 743 mmHg 60%
19:00 +5°C° 0 mm 4 mps 743 mmHg 69%
20:00 +4°C° 0 mm 3 mps 743 mmHg 78%
21:00 +4°C° 0 mm 2 mps 743 mmHg 87%
22:00 +3°C° 0 mm 2 mps 742 mmHg 88%
23:00 +3°C° 0 mm 2 mps 742 mmHg 90%

27 April, Tuesday

Time Temperature Precipitation Wind Pressure Humidity
00:00 +2°C° 0 mm 2 mps 742 mmHg 92%
01:00 +2°C° 0 mm 2 mps 742 mmHg 92%
02:00 +2°C° 0 mm 2 mps 741 mmHg 92%
03:00 +2°C° 0 mm 2 mps 741 mmHg 92%
04:00 +3°C° 0 mm 2 mps 741 mmHg 90%
05:00 +3°C° 0 mm 2 mps 741 mmHg 88%
06:00 +4°C° 0 mm 2 mps 740 mmHg 86%
07:00 +5°C° 0 mm 3 mps 740 mmHg 75%
08:00 +7°C° 0 mm 4 mps 739 mmHg 64%
09:00 +9°C° 0 mm 6 mps 739 mmHg 54%
10:00 +9°C° 0 mm 6 mps 739 mmHg 50%
11:00 +10°C° 0 mm 7 mps 738 mmHg 45%
12:00 +11°C° 0 mm 8 mps 737 mmHg 41%
13:00 +9°C° 0.4 mm 7 mps 738 mmHg 56%
14:00 +5°C° 0.4 mm 6 mps 738 mmHg 70%
15:00 +3°C° 0.4 mm 5 mps 738 mmHg 84%
16:00 +3°C° 0.1 mm 5 mps 738 mmHg 83%
17:00 +2°C° 0.1 mm 5 mps 739 mmHg 83%
18:00 +3°C° 0.1 mm 4 mps 739 mmHg 82%
19:00 +1°C° 0 mm 4 mps 739 mmHg 85%
20:00 +1°C° 0 mm 3 mps 739 mmHg 88%
21:00 +1°C° 0 mm 3 mps 739 mmHg 91%
22:00 0°C° 0 mm 3 mps 739 mmHg 89%
23:00 0°C° 0 mm 3 mps 739 mmHg 88%
Show more